Heber, UT

12:49 PM MDT on October 21, 2017 (GMT -0600)
Heber

Weather History for K36U - May, 2013

Change the Weather History Date:

Monday, May 27, 2013

  Actual Average (KPVU) Record (KPVU)
Temperature  
Mean Temperature 56 °F -  
Max Temperature 71 °F 75 °F 89 °F (2003)
Min Temperature 42 °F 47 °F 41 °F (1989)
Degree Days  
Heating Degree Days 8    
Growing Degree Days 6 (Base 50)    
Moisture  
Dew Point 32 °F    
Average Humidity 39    
Maximum Humidity 66    
Minimum Humidity 20    
Precipitation  
Precipitation 0.00 in - - ()
Sea Level Pressure  
Sea Level Pressure 29.95 in    
Wind  
Wind Speed 5 mph (SSW)    
Max Wind Speed 17 mph    
Max Gust Speed 24 mph    
Visibility 10 miles    
Events      
Averages and records for this station are not official NWS values.
T = Trace of Precipitation, MM = Missing Value Source: NWS Daily Summary

Daily Weather History Graph

Daily Weather History Graph

Search for Another Location

Airport or City:

Trip Planner

Search our weather history database for the weather conditions in past years. The results will help you decide how hot, cold, wet, or windy it might be!

Date:

Astronomy

May. 27, 2013 Rise Set
Actual Time 5:59 AM MDT 8:46 PM MDT
Civil Twilight 5:27 AM MDT 9:18 PM MDT
Nautical Twilight 4:47 AM MDT 9:59 PM MDT
Astronomical Twilight 4:01 AM MDT 10:45 PM MDT
Moon 11:28 PM MDT (5/27) 8:41 AM MDT (5/27)
Length of Visible Light 15h 50m
Length of Day
14h 46m
Waning Gibbous, 90% of the Moon is Illuminated
May 27
Waning Gibbous
May 31
Last Quarter
Jun 8
New
Jun 16
First Quarter
Jun 23
Full

Hourly Weather History & Observations

Time (MDT) Temp. Windchill Dew Point Humidity Pressure Visibility Wind Dir Wind Speed Gust Speed Precip Events Conditions
12:15 AM 55.4 °F - 26.6 °F 33% 29.92 in 10.0 mi Calm Calm - N/A   Clear
12:35 AM 59.0 °F - 28.4 °F 31% 29.93 in 10.0 mi Calm Calm - N/A   Scattered Clouds
12:55 AM 57.2 °F - 28.4 °F 33% 29.94 in 10.0 mi Calm Calm - N/A   Scattered Clouds
1:15 AM 55.4 °F - 30.2 °F 38% 29.93 in 10.0 mi ESE 6.9 mph - N/A   Scattered Clouds
1:35 AM 55.4 °F - 28.4 °F 36% 29.94 in 10.0 mi Calm Calm - N/A   Clear
1:55 AM 60.8 °F - 28.4 °F 29% 29.94 in 10.0 mi SW 10.4 mph 19.6 mph N/A   Clear
2:15 AM 55.4 °F - 28.4 °F 36% 29.94 in 10.0 mi NNE 10.4 mph - N/A   Clear
2:35 AM 55.4 °F - 26.6 °F 33% 29.95 in 10.0 mi Calm Calm - N/A   Clear
2:55 AM 50.0 °F - 30.2 °F 47% 29.95 in 10.0 mi East 5.8 mph - N/A   Clear
3:15 AM 44.6 °F 39.7 °F 32.0 °F 61% 29.96 in 10.0 mi ESE 9.2 mph - N/A   Clear
3:35 AM 46.4 °F 41.5 °F 32.0 °F 57% 29.96 in 10.0 mi ESE 10.4 mph - N/A   Clear
3:55 AM 46.4 °F 41.9 °F 32.0 °F 57% 29.97 in 10.0 mi ESE 9.2 mph - N/A   Clear
4:15 AM 46.4 °F 41.9 °F 32.0 °F 57% 29.98 in 10.0 mi ESE 9.2 mph - N/A   Clear
4:35 AM 46.4 °F 41.5 °F 32.0 °F 57% 29.98 in 10.0 mi East 10.4 mph - N/A   Clear
4:55 AM 46.4 °F 42.4 °F 32.0 °F 57% 29.98 in 10.0 mi ESE 8.1 mph - N/A   Clear
5:15 AM 48.2 °F - 33.8 °F 58% 29.99 in 10.0 mi SW 4.6 mph - N/A   Clear
5:35 AM 50.0 °F - 33.8 °F 54% 29.99 in 10.0 mi Calm Calm - N/A   Clear
5:55 AM 48.2 °F - 32.0 °F 54% 29.99 in 10.0 mi Calm Calm - N/A   Clear
6:15 AM 46.4 °F - 33.8 °F 62% 30.00 in 10.0 mi Calm Calm - N/A   Clear
6:35 AM 42.8 °F 40.1 °F 32.0 °F 66% 30.00 in 10.0 mi East 4.6 mph - N/A   Clear
6:55 AM 46.4 °F 45.2 °F 33.8 °F 62% 30.00 in 10.0 mi West 3.5 mph - N/A   Clear
7:15 AM 48.2 °F - 35.6 °F 62% 30.01 in 10.0 mi Calm Calm - N/A   Clear
7:35 AM 50.0 °F - 35.6 °F 58% 30.01 in 10.0 mi Calm Calm - N/A   Clear
7:55 AM 51.8 °F - 35.6 °F 54% 30.01 in 10.0 mi Calm Calm - N/A   Clear
8:15 AM 53.6 °F - 33.8 °F 47% 30.01 in 10.0 mi Calm Calm - N/A   Clear
8:35 AM 55.4 °F - 35.6 °F 47% 30.01 in 10.0 mi Calm Calm - N/A   Clear
8:55 AM 57.2 °F - 33.8 °F 41% 30.01 in 10.0 mi Calm Calm - N/A   Clear
9:15 AM 59.0 °F - 33.8 °F 39% 30.01 in 10.0 mi Calm Calm - N/A   Clear
9:35 AM 60.8 °F - 32.0 °F 34% 30.01 in 10.0 mi Calm Calm - N/A   Clear
9:55 AM 62.6 °F - 32.0 °F 32% 30.01 in 10.0 mi Calm Calm - N/A   Clear
10:15 AM 62.6 °F - 32.0 °F 32% 30.01 in 10.0 mi Calm Calm - N/A   Clear
10:35 AM 62.6 °F - 30.2 °F 30% 30.01 in 10.0 mi Calm Calm - N/A   Clear
10:55 AM 64.4 °F - 30.2 °F 28% 30.00 in 10.0 mi Calm Calm - N/A   Clear
11:15 AM 66.2 °F - 32.0 °F 28% 30.00 in 10.0 mi WSW 10.4 mph - N/A   Clear
11:35 AM 68.0 °F - 28.4 °F 23% 30.00 in 10.0 mi SW 4.6 mph - N/A   Clear
11:55 AM 68.0 °F - 30.2 °F 24% 29.99 in 10.0 mi WSW 11.5 mph - N/A   Clear
12:15 PM 69.8 °F - 32.0 °F 25% 29.99 in 10.0 mi SW 11.5 mph - N/A   Clear
12:35 PM 69.8 °F - 32.0 °F 25% 29.99 in 10.0 mi WSW 13.8 mph 20.7 mph N/A   Clear
12:55 PM 68.0 °F - 32.0 °F 26% 29.99 in 10.0 mi SW 16.1 mph 24.2 mph N/A   Clear
1:15 PM 69.8 °F - 30.2 °F 23% 29.99 in 10.0 mi WSW 12.7 mph 18.4 mph N/A   Clear
1:35 PM 69.8 °F - 28.4 °F 21% 29.99 in 10.0 mi WSW 10.4 mph - N/A   Clear
1:55 PM 69.8 °F - 28.4 °F 21% 29.98 in 10.0 mi SW 15.0 mph 20.7 mph N/A   Clear
2:15 PM 69.8 °F - 30.2 °F 23% 29.98 in 10.0 mi SW 6.9 mph 20.7 mph N/A   Clear
2:35 PM 71.6 °F - 28.4 °F 20% 29.97 in 10.0 mi WSW 15.0 mph 18.4 mph N/A   Clear
2:55 PM 71.6 °F - 30.2 °F 22% 29.97 in 10.0 mi WSW 13.8 mph 21.9 mph N/A   Clear
3:15 PM 71.6 °F - 30.2 °F 22% 29.96 in 10.0 mi WSW 12.7 mph 21.9 mph N/A   Clear
3:35 PM 71.6 °F - 32.0 °F 23% 29.95 in 10.0 mi WSW 17.3 mph 21.9 mph N/A   Clear
3:55 PM 71.6 °F - 32.0 °F 23% 29.94 in 10.0 mi SW 17.3 mph - N/A   Clear
4:15 PM 71.6 °F - 30.2 °F 22% 29.93 in 10.0 mi WSW 17.3 mph 21.9 mph N/A   Clear
4:35 PM 71.6 °F - 32.0 °F 23% 29.92 in 10.0 mi WSW 15.0 mph 20.7 mph N/A   Clear
4:55 PM 69.8 °F - 32.0 °F 25% 29.92 in 10.0 mi SW 13.8 mph 19.6 mph N/A   Clear
5:15 PM 69.8 °F - 30.2 °F 23% 29.91 in 10.0 mi SW 16.1 mph - N/A   Clear
5:35 PM 69.8 °F - 30.2 °F 23% 29.91 in 10.0 mi SW 12.7 mph 19.6 mph N/A   Clear
5:55 PM 64.4 °F - 32.0 °F 30% 29.90 in 10.0 mi SSW 9.2 mph - N/A   Clear
6:15 PM 66.2 °F - 32.0 °F 28% 29.90 in 10.0 mi SW 9.2 mph - N/A   Clear
6:35 PM 66.2 °F - 32.0 °F 28% 29.90 in 10.0 mi WSW 10.4 mph - N/A   Clear
6:55 PM 66.2 °F - 32.0 °F 28% 29.88 in 10.0 mi West 4.6 mph - N/A   Clear
7:15 PM 64.4 °F - 32.0 °F 30% 29.88 in 10.0 mi West 4.6 mph - N/A   Clear
7:35 PM 62.6 °F - 33.8 °F 34% 29.88 in 10.0 mi West 4.6 mph - N/A   Clear
7:55 PM 64.4 °F - 32.0 °F 30% 29.87 in 10.0 mi Calm Calm - N/A   Clear
8:15 PM 62.6 °F - 35.6 °F 37% 29.87 in 10.0 mi Calm Calm - N/A   Clear
8:35 PM 59.0 °F - 41.0 °F 51% 29.86 in 10.0 mi Calm Calm - N/A   Clear
8:55 PM 55.4 °F - 41.0 °F 58% 29.86 in 10.0 mi Calm Calm - N/A   Clear
9:15 PM 55.4 °F - 37.4 °F 51% 29.86 in 10.0 mi East 3.5 mph - N/A   Clear
9:35 PM 51.8 °F - 37.4 °F 58% 29.86 in 10.0 mi SE 4.6 mph - N/A   Clear
9:55 PM 48.2 °F - 35.6 °F 62% 29.86 in 10.0 mi East 9.2 mph - N/A   Clear
10:15 PM 53.6 °F - 32.0 °F 44% 29.87 in 10.0 mi East 4.6 mph - N/A   Clear
10:35 PM 51.8 °F - 32.0 °F 47% 29.87 in 10.0 mi East 6.9 mph - N/A   Clear
10:55 PM 48.2 °F - 32.0 °F 54% 29.87 in 10.0 mi SSE 3.5 mph - N/A   Clear
11:15 PM 50.0 °F - 32.0 °F 50% 29.87 in 10.0 mi Calm Calm - N/A   Clear
11:35 PM 50.0 °F - 33.8 °F 54% 29.86 in 10.0 mi Calm Calm - N/A   Clear
11:55 PM 50.0 °F - 32.0 °F 50% 29.86 in 10.0 mi SSW 3.5 mph - N/A   Clear